This demonstration page uses our WeatherBlox Daily Observations layout. Learn more.

Left ArrowRight Arrow

Hourly Observations for December 26, 2019

Temp ( °F °C ) Dew Point ( °F °C ) Humidity (%) Winds ( mph kmh ) Pressure ( in mb ) Visibility ( mi km ) Precip ( " mm )
12:51 am 00:51 Clear 37 2.8 36 2.2 96 96 ENE 3 6 29.95 1014 10 16 N/A
1:51 am 01:51 Clear 36 2.2 35 1.7 97 97 N N/A 29.95 1014 10 16 N/A
2:51 am 02:51 Mostly Clear 36 2.2 35 1.7 97 97 ESE 5 7 29.95 1014 10 16 N/A
3:51 am 03:51 Partly Cloudy 34 1.1 34 1.1 100 100 N N/A 29.95 1014 10 16 N/A
4:51 am 04:51 Mostly Clear 35 1.7 34 1.1 96 96 ESE 5 7 29.94 1014 10 16 N/A
5:51 am 05:51 Mostly Clear 37 2.8 36 2.2 96 96 SSE 10 17 29.94 1014 10 16 N/A
6:51 am 06:51 Mostly Cloudy 37 2.8 36 2.2 96 96 SE 7 11 29.96 1015 10 16 N/A
7:51 am 07:51 Mostly Sunny 40 4.4 36 2.2 86 86 SE 10 17 29.96 1015 10 16 N/A
8:51 am 08:51 Mostly Cloudy 43 6.1 37 2.8 80 80 ESE 9 15 29.97 1015 10 16 N/A
9:51 am 09:51 Mostly Cloudy 48 8.9 37 2.8 66 66 ESE 13 20 29.98 1015 10 16 N/A
10:51 am 10:51 Partly Cloudy 51 10.6 39 3.9 64 64 ESE 7 11 29.96 1014 10 16 N/A
11:51 am 11:51 Sunny 55 12.8 41 5 59 59 ESE 8 13 29.90 1013 10 16 N/A
12:51 pm 12:51 Mostly Cloudy 57 13.9 40 4.4 53 53 E 15 24 29.85 1011 10 16 N/A
1:51 pm 13:51 Mostly Cloudy 59 15 40 4.4 49 49 SE 7 11 29.81 1010 10 16 N/A
2:51 pm 14:51 Mostly Cloudy 61 16.1 37 2.8 41 41 SSE 12 19 29.78 1009 10 16 N/A
3:51 pm 15:51 Cloudy 60 15.6 38 3.3 44 44 E 10 17 29.77 1008 10 16 N/A
4:51 pm 16:51 Cloudy 60 15.6 40 4.4 47 47 E 17 28 29.77 1008 10 16 N/A
5:51 pm 17:51 Mostly Cloudy 58 14.4 40 4.4 51 51 E 9 15 29.77 1008 10 16 N/A
6:51 pm 18:51 Cloudy 56 13.3 40 4.4 55 55 E 10 17 29.78 1009 10 16 N/A
7:51 pm 19:51 Cloudy 54 12.2 40 4.4 59 59 E 12 19 29.79 1009 10 16 N/A
8:51 pm 20:51 Partly Cloudy 52 11.1 39 3.9 61 61 ESE 10 17 29.78 1008 10 16 N/A
9:51 pm 21:51 Clear 53 11.7 37 2.8 55 55 E 9 15 29.77 1008 10 16 N/A
10:51 pm 22:51 Clear 53 11.7 34 1.1 48 48 ESE 7 11 29.76 1008 10 16 N/A
11:51 pm 23:51 Clear 50 10 34 1.1 54 54 ESE 5 7 29.74 1007 10 16 N/A

Powered by AerisWeather